N7QNM-13 Weather Reports


time (UTC)temp
F
wind
direction
speed
knots
gust
knots
rain 1hr
in
rain 24hr
in
rain mn
in
humidity
%
barometer
mb
20260505011113 91 44 0.0 4.3 0.00 0.00 0.00 27 1004.5
20260505010112 91 166 1.7 3.5 0.00 0.00 0.00 27 1004.5
20260505005113 90 92 0.9 4.3 0.00 0.00 0.00 26 1004.6
20260505004113 90 335 0.0 0.9 0.00 0.00 0.00 27 1004.6
20260505003134 90 331 0.0 0.9 0.00 0.00 0.00 27 1004.6
20260505002113 90 47 0.9 4.3 0.00 0.00 0.00 28 1004.6
20260505001113 88 97 1.7 4.3 0.00 0.00 0.00 28 1004.7
20260505000113 89 47 3.5 8.7 0.00 0.00 0.00 28 1004.7
20260504235114 89 82 0.0 2.6 0.00 0.00 0.00 27 1004.7
20260504234114 88 278 2.6 6.1 0.00 0.00 0.00 28 1004.7
20260504233114 88 284 5.2 8.7 0.00 0.00 0.00 28 1004.8
20260504232114 89 304 2.6 7.8 0.00 0.00 0.00 28 1004.9
20260504231114 89 20 1.7 7.8 0.00 0.00 0.00 28 1005.0
20260504230114 88 215 3.5 7.0 0.00 0.00 0.00 28 1005.0
20260504225114 88 232 2.6 6.1 0.00 0.00 0.00 27 1005.1
20260504224115 87 272 4.3 7.8 0.00 0.00 0.00 27 1005.2
20260504223115 87 231 7.0 12.2 0.00 0.00 0.00 28 1005.3
20260504222135 88 267 6.1 13.0 0.00 0.00 0.00 28 1005.4
20260504221135 87 270 0.9 4.3 0.00 0.00 0.00 27 1005.6
20260504220135 87 309 2.6 9.6 0.00 0.00 0.00 28 1005.7
20260504215115 87 323 0.9 3.5 0.00 0.00 0.00 28 1005.8
20260504214115 87 289 1.7 8.7 0.00 0.00 0.00 28 1005.9
20260504213115 87 356 0.9 5.2 0.00 0.00 0.00 28 1006.1
20260504212116 86 63 1.7 6.1 0.00 0.00 0.00 29 1006.2
20260504211116 86 21 0.9 3.5 0.00 0.00 0.00 30 1006.3
20260504210115 85 59 3.5 8.7 0.00 0.00 0.00 31 1006.3
20260504205116 86 61 4.3 9.6 0.00 0.00 0.00 32 1006.5
20260504204116 87 65 3.5 13.9 0.00 0.00 0.00 31 1006.6
20260504203116 87 67 1.7 7.0 0.00 0.00 0.00 31 1006.8
20260504202116 87 171 1.7 6.1 0.00 0.00 0.00 32 1006.9
20260504201116 85 151 0.0 2.6 0.00 0.00 0.00 33 1007.0
20260504200117 86 343 0.9 3.5 0.00 0.00 0.00 33 1007.1
20260504195136 85 229 1.7 5.2 0.00 0.00 0.00 32 1007.2
20260504194116 85 74 2.6 7.0 0.00 0.00 0.00 33 1007.2
20260504193137 84 42 0.9 5.2 0.00 0.00 0.00 32 1007.3
20260504192118 84 92 0.9 4.3 0.00 0.00 0.00 33 1007.3
20260504191137 83 316 0.0 2.6 0.00 0.00 0.00 33 1007.4
20260504190018 83 63 1.7 6.1 0.00 0.00 0.00 33 1007.5
20260504185017 82 171 2.6 7.8 0.00 0.00 0.00 34 1007.6
20260504184117 82 285 3.5 8.7 0.00 0.00 0.00 34 1007.6
20260504183117 82 268 3.5 6.1 0.00 0.00 0.00 35 1007.7
20260504182117 81 267 2.6 6.1 0.00 0.00 0.00 36 1007.8
20260504181018 81 296 4.3 8.7 0.00 0.00 0.00 37 1007.9
20260504180018 80 284 1.7 5.2 0.00 0.00 0.00 39 1008.0
20260504175018 79 292 4.3 7.0 0.00 0.00 0.00 39 1007.9
20260504174018 78 289 1.7 5.2 0.00 0.00 0.00 40 1008.1
20260504173138 77 289 1.7 6.1 0.00 0.00 0.00 39 1008.1
20260504172018 76 295 3.5 7.0 0.00 0.00 0.00 41 1008.1
20260504171018 75 293 3.5 7.0 0.00 0.00 0.00 41 1008.1
20260504151020 66 256 0.9 3.5 0.00 0.00 0.00 57 1008.5
20260504141020 57 227 0.9 1.7 0.00 0.00 0.00 76 1008.3
20260504081024 54 136 0.0 1.7 0.00 0.00 0.00 76 1007.7
20260504045027 65 56 0.0 0.9 0.00 0.00 0.00 50 1007.6
20260504044107 66 255 1.7 3.5 0.00 0.00 0.00 49 1007.5
20260504043047 68 283 1.7 2.6 0.00 0.00 0.00 46 1007.6
20260504042027 68 139 0.0 2.6 0.00 0.00 0.00 43 1007.5
20260504041128 68 246 0.0 0.9 0.00 0.00 0.00 43 1007.5
20260504040028 70 0.0 0.0 0.00 0.00 0.00 45 1007.4
20260504035028 71 236 0.0 1.7 0.00 0.00 0.00 42 1007.2
20260504034027 72 298 0.0 1.7 0.00 0.00 0.00 39 1007.1
20260504033028 73 35 0.0 0.9 0.00 0.00 0.00 40 1007.0
20260504032029 74 157 1.7 5.2 0.00 0.00 0.00 37 1006.9
20260504031028 76 143 0.9 4.3 0.00 0.00 0.00 38 1006.9
20260504030029 78 250 1.7 4.3 0.00 0.00 0.00 36 1006.8
20260504025028 79 194 0.0 1.7 0.00 0.00 0.00 36 1006.8
20260504024039 81 162 3.5 5.2 0.00 0.00 0.00 35 1006.8
20260504023029 83 171 0.9 4.3 0.00 0.00 0.00 35 1006.8
20260504022028 86 191 2.6 5.2 0.00 0.00 0.00 33 1006.9
20260504021029 87 177 1.7 4.3 0.00 0.00 0.00 30 1006.9
20260504020149 87 149 0.0 0.9 0.00 0.00 0.00 30 1007.0
20260504015029 89 100 2.6 7.0 0.00 0.00 0.00 29 1007.1
20260504014030 90 0.0 0.0 0.00 0.00 0.00 26 1007.2
20260504013029 90 52 0.9 4.3 0.00 0.00 0.00 27 1007.3